Wind_Speed
66 69 72 75 76 76 76 77 79 80 80 81 87 93 100 107 113 118 123 126 127 125 121 117 111 104 98 93 90 87 85 84 83 83 85 87 88 89
69 72 75 77 76 76 77 79 83 86 89 91 97 103 110 117 123 127 127 124 119 112 105 98 92 86 82 78 76 74 73 72 73 74 76 78 80 81
72 76 76 76 75 77 80 84 89 95 100 101 106 111 117 120 120 116 111 105 100 94 89 85 81 77 74 72 70 69 68 69 69 70 72 73 74 77
75 76 75 75 77 80 85 91 97 103 109 112 114 115 112 107 100 93 87 83 79 75 71 68 64 62 61 60 61 61 62 62 62 61 61 62 63 64
74 74 75 77 81 86 92 98 103 109 114 117 113 105 94 84 76 68 63 59 56 55 52 49 47 46 46 47 48 50 50 50 50 51 52 54 55 56
72 74 77 81 86 92 98 104 110 112 111 106 97 83 70 60 55 49 43 41 40 41 40 38 37 37 38 39 40 41 42 43 45 47 48 49 50 50
73 76 81 87 92 98 105 110 110 106 97 87 74 61 52 46 41 38 35 33 34 37 34 34 35 35 36 36 36 36 37 39 40 41 41 41 41 42
76 81 87 93 98 104 109 108 100 90 79 66 56 48 43 39 37 34 33 31 30 32 31 31 33 33 35 36 36 35 34 33 31 29 28 28 28 29
82 87 93 98 104 107 105 94 81 70 61 53 47 42 38 36 33 30 29 29 30 32 29 27 31 33 35 36 34 30 27 24 20 18 18 19 21 23
88 93 98 102 105 103 92 78 63 54 49 46 44 40 36 34 32 29 27 25 28 34 35 32 32 33 34 34 30 24 20 19 17 17 18 20 22 23
93 98 102 104 100 90 76 61 49 43 42 42 40 37 36 35 34 32 29 26 26 31 36 36 35 32 31 30 25 19 17 17 18 19 21 23 25 25
96 100 102 97 85 72 59 47 39 38 37 36 35 34 35 34 35 35 33 31 31 31 33 33 32 29 25 26 20 16 15 16 18 20 21 23 25 27
98 98 93 81 69 57 47 39 36 35 34 32 32 32 33 33 33 34 35 35 34 33 32 30 28 26 24 20 16 13 11 13 15 18 21 23 26 29
96 89 77 65 54 45 38 35 34 34 32 31 31 32 32 31 31 32 32 34 35 33 30 28 25 23 22 20 18 16 16 15 16 18 21 23 26 28
86 74 62 52 43 37 35 33 32 31 30 30 31 31 32 31 29 28 29 30 32 30 26 22 20 21 21 21 21 21 20 20 21 21 21 22 23 25
71 59 50 42 37 34 34 32 31 31 32 31 31 31 32 31 29 27 25 24 24 24 21 17 16 18 19 22 24 24 24 23 22 22 21 21 21 21
58 47 40 35 33 33 33 33 33 33 33 33 33 32 32 31 29 26 24 22 20 18 16 13 12 14 18 21 24 24 25 24 23 21 21 20 19 17
47 39 34 32 31 31 31 32 33 33 33 33 33 31 30 28 27 25 22 19 16 14 12 9 9 12 15 19 22 23 24 24 24 25 23 21 18 15
38 33 31 31 30 30 30 31 31 32 32 31 30 29 28 27 25 23 20 17 14 11 10 7 6 8 12 16 21 24 25 25 26 26 24 20 16 15
32 30 29 29 29 29 30 30 30 30 29 29 28 27 25 24 23 21 17 14 11 9 7 6 4 5 9 13 18 23 25 25 26 25 22 18 16 17
28 28 27 27 28 28 27 27 27 27 27 27 26 25 24 22 21 19 16 13 9 7 5 4 3 3 6 11 16 21 24 25 26 24 21 19 19 20
25 25 25 25 25 25 25 25 26 27 27 27 26 25 24 22 20 18 15 12 8 5 4 3 2 1 3 7 12 18 21 23 24 23 22 22 23 23
23 23 23 22 22 22 24 25 26 27 27 27 25 24 24 23 21 18 14 11 7 4 2 1 1 2 3 6 10 15 18 20 20 20 22 24 26 27
Wind_Direction
301 303 304 305 305 305 303 302 301 300 299 300 300 299 299 298 297 296 295 293 292 290 288 286 284 282 280 278 276 274 273 271 270 269 268 267 265 264
303 304 306 306 305 304 303 303 303 303 303 304 302 301 300 299 298 297 296 295 293 291 288 285 282 279 276 274 272 270 269 269 269 268 267 266 264 262
305 306 306 306 305 305 305 306 306 306 305 305 304 303 302 300 299 297 296 294 293 291 289 286 283 279 276 273 271 269 269 269 269 269 269 267 265 262
306 306 306 306 307 307 307 308 308 308 307 307 306 305 303 301 299 298 297 296 295 293 291 288 285 282 278 275 272 271 271 271 272 272 270 268 266 262
307 307 307 308 309 309 310 310 310 310 309 309 308 307 306 304 302 302 302 301 301 299 297 295 292 288 285 281 278 276 276 276 275 273 271 269 266 262
308 309 309 310 310 311 311 312 312 311 310 309 309 310 310 308 309 309 310 309 308 305 305 304 301 297 294 290 287 284 281 280 278 275 272 269 266 262
309 310 311 311 312 313 314 314 313 312 311 311 313 314 314 315 316 316 316 315 312 310 313 310 307 305 302 299 297 293 289 285 281 276 271 268 266 263
310 311 312 313 314 315 316 316 314 313 313 315 317 318 319 319 321 321 321 320 316 314 317 314 310 309 305 304 301 298 296 293 286 277 270 267 266 265
312 312 314 315 316 317 317 315 314 313 314 317 320 321 321 323 326 327 326 324 321 321 323 321 314 311 307 305 305 303 300 297 289 279 274 273 273 273
313 315 316 317 317 317 316 315 315 314 316 318 321 323 325 328 329 331 331 329 326 324 326 327 321 316 310 307 307 303 300 297 289 282 280 281 281 280
316 316 317 317 317 316 316 316 315 315 317 319 321 324 327 330 331 331 332 334 335 330 329 329 326 325 317 312 311 303 294 290 285 284 285 286 286 284
317 318 318 318 317 316 317 317 315 316 318 320 322 324 326 328 330 332 335 338 340 339 336 335 333 333 330 323 320 311 298 291 290 291 290 289 289 288
318 318 318 317 317 317 318 318 318 320 321 322 322 322 324 327 329 332 334 336 341 345 344 345 347 349 352 352 347 342 329 317 310 306 303 298 295 293
319 319 318 317 317 318 318 319 320 322 322 321 321 322 323 325 327 329 332 334 340 347 350 353 1 9 15 17 15 9 359 347 334 323 315 307 302 299
320 319 318 318 318 318 319 320 320 320 320 321 322 323 323 324 325 327 330 334 339 345 353 2 13 21 24 23 17 10 1 351 343 338 333 327 319 311
320 318 319 319 319 320 321 322 322 321 321 323 324 323 323 324 325 326 327 331 337 342 353 8 21 24 21 16 11 5 359 354 349 347 345 341 334 327
320 320 320 320 321 323 323 324 324 325 325 324 324 324 324 324 324 325 326 329 336 343 351 5 19 23 21 16 10 4 360 360 3 5 5 1 355 348
322 322 322 322 324 325 325 325 325 325 324 324 324 323 323 324 324 324 324 327 334 342 350 359 13 21 22 19 14 10 7 10 16 18 17 15 16 22
324 325 325 326 328 329 329 329 328 327 327 326 326 326 326 326 326 325 323 324 331 340 347 350 3 19 24 22 18 16 16 19 23 24 24 28 40 57
326 328 329 331 332 333 334 335 335 335 334 334 333 333 332 331 330 328 324 322 327 335 340 340 342 15 29 27 25 24 24 26 27 28 32 43 58 78
329 331 334 336 338 340 343 346 347 347 346 344 343 341 339 337 335 334 329 324 325 335 334 332 328 5 31 31 30 30 29 32 33 36 47 65 76 90
333 337 340 342 346 350 355 357 356 355 354 353 351 349 347 344 341 338 335 330 329 336 342 337 338 35 45 41 39 37 37 40 44 52 66 77 85 93
340 344 347 350 354 359 0 359 358 357 357 358 358 358 357 355 353 349 344 339 337 340 358 23 72 111 87 63 54 48 47 52 59 70 86 90 90 91
Height
5638 5630 5622 5613 5603 5594 5584 5575 5567 5563 5561 5554 5540 5527 5510 5494 5478 5463 5449 5436 5423 5410 5399 5389 5381 5374 5369 5365 5363 5361 5360 5359 5360 5361 5361 5363 5366 5370
5623 5615 5605 5596 5586 5575 5566 5556 5544 5535 5530 5527 5514 5499 5480 5459 5439 5419 5402 5387 5373 5362 5353 5347 5342 5339 5336 5335 5334 5333 5333 5333 5333 5333 5333 5334 5336 5338
5608 5599 5589 5578 5569 5558 5548 5537 5524 5510 5501 5497 5484 5467 5448 5425 5404 5383 5363 5347 5335 5326 5318 5312 5308 5306 5305 5306 5307 5308 5309 5309 5309 5308 5307 5307 5307 5309
5592 5582 5572 5562 5552 5541 5529 5516 5501 5485 5468 5457 5449 5431 5412 5388 5369 5352 5336 5320 5307 5298 5290 5284 5281 5279 5279 5281 5282 5284 5285 5285 5285 5284 5282 5281 5280 5280
5575 5566 5556 5545 5534 5521 5508 5493 5476 5458 5438 5419 5406 5391 5376 5358 5342 5330 5316 5303 5290 5280 5272 5268 5264 5262 5261 5262 5262 5263 5264 5264 5263 5261 5259 5258 5257 5257
5559 5550 5539 5527 5514 5501 5485 5468 5449 5431 5410 5390 5374 5361 5349 5337 5324 5313 5304 5293 5281 5270 5264 5259 5255 5252 5249 5248 5247 5247 5246 5244 5242 5240 5238 5237 5237 5237
5544 5533 5521 5508 5493 5477 5460 5441 5421 5401 5383 5368 5355 5343 5333 5323 5313 5303 5295 5287 5276 5265 5260 5254 5248 5244 5240 5236 5234 5231 5229 5227 5224 5221 5220 5219 5219 5220
5528 5516 5503 5488 5471 5455 5436 5415 5393 5374 5361 5351 5341 5331 5322 5313 5305 5295 5287 5279 5272 5264 5257 5251 5243 5239 5233 5228 5224 5219 5216 5212 5209 5207 5206 5206 5206 5206
5510 5497 5483 5465 5447 5430 5413 5394 5376 5359 5347 5338 5331 5322 5314 5306 5298 5290 5282 5273 5265 5257 5253 5248 5240 5233 5226 5219 5214 5210 5206 5203 5200 5199 5198 5198 5197 5197
5490 5475 5460 5443 5424 5406 5391 5377 5362 5348 5338 5330 5321 5314 5306 5299 5291 5284 5277 5271 5263 5253 5245 5241 5234 5226 5218 5211 5205 5202 5200 5197 5195 5193 5192 5191 5190 5188
5471 5453 5436 5421 5404 5386 5372 5361 5350 5340 5330 5322 5314 5306 5299 5292 5285 5279 5273 5267 5261 5252 5241 5233 5225 5219 5211 5203 5198 5195 5193 5191 5190 5188 5186 5184 5181 5179
5453 5433 5414 5396 5380 5366 5356 5348 5340 5332 5325 5317 5309 5302 5295 5288 5280 5273 5266 5260 5255 5248 5239 5230 5220 5212 5206 5197 5193 5190 5187 5185 5184 5182 5179 5175 5171 5168
5432 5414 5395 5377 5363 5352 5344 5337 5331 5324 5318 5311 5305 5298 5291 5284 5277 5269 5261 5254 5249 5242 5234 5226 5217 5208 5200 5195 5191 5187 5184 5181 5178 5175 5171 5166 5162 5157
5410 5392 5376 5363 5352 5343 5336 5329 5323 5317 5311 5305 5299 5293 5286 5280 5273 5266 5259 5251 5244 5239 5231 5224 5216 5209 5202 5196 5191 5188 5184 5180 5175 5170 5164 5159 5152 5147
5388 5372 5360 5351 5343 5335 5329 5323 5317 5311 5305 5300 5293 5287 5280 5274 5269 5263 5256 5249 5242 5237 5231 5224 5218 5212 5206 5200 5194 5190 5185 5179 5172 5166 5160 5153 5146 5140
5373 5360 5349 5341 5334 5328 5322 5316 5310 5304 5298 5293 5287 5281 5275 5269 5263 5258 5253 5248 5242 5236 5231 5225 5219 5214 5208 5203 5197 5191 5184 5178 5172 5165 5157 5150 5143 5136
5360 5350 5341 5334 5328 5321 5315 5308 5303 5297 5291 5285 5280 5274 5268 5263 5257 5252 5248 5244 5240 5235 5230 5226 5221 5216 5211 5205 5200 5193 5186 5179 5172 5165 5158 5150 5143 5136
5349 5341 5335 5328 5322 5316 5310 5303 5297 5291 5285 5279 5274 5268 5263 5258 5252 5247 5244 5240 5237 5233 5229 5225 5222 5218 5214 5209 5204 5197 5189 5182 5174 5167 5160 5153 5147 5142
5341 5335 5328 5322 5316 5310 5304 5298 5292 5286 5280 5274 5268 5263 5257 5252 5248 5243 5239 5236 5234 5231 5228 5225 5222 5219 5215 5211 5207 5200 5192 5185 5178 5171 5164 5159 5155 5151
5335 5330 5324 5317 5312 5306 5300 5294 5288 5281 5275 5269 5263 5258 5253 5248 5243 5239 5236 5233 5231 5228 5226 5224 5222 5220 5217 5214 5209 5203 5196 5189 5182 5176 5171 5167 5164 5162
5331 5326 5320 5314 5308 5303 5297 5291 5285 5279 5273 5266 5261 5255 5250 5245 5240 5236 5233 5230 5228 5226 5225 5223 5222 5220 5218 5216 5213 5208 5202 5195 5188 5183 5179 5176 5175 5174
5328 5323 5317 5312 5307 5301 5296 5290 5284 5278 5271 5265 5259 5254 5248 5243 5238 5233 5230 5228 5226 5225 5224 5223 5221 5221 5220 5219 5216 5213 5208 5202 5197 5192 5189 5187 5186 5186
5326 5321 5316 5311 5306 5301 5296 5290 5284 5278 5272 5265 5259 5253 5247 5242 5236 5232 5228 5226 5224 5224 5223 5222 5222 5221 5221 5221 5220 5218 5214 5210 5206 5203 5201 5199 5198 5198